Flint, MI

1:09 AM EST on January 21, 2018 (GMT -0500)
Bishop International

Weather History for KFNT - January, 2013

Change the Weather History Date:

Tuesday, January 29, 2013

  Actual Average Record
Temperature  
Mean Temperature 45 °F 22 °F  
Max Temperature 58 °F 30 °F 58 °F (2013)
Min Temperature 31 °F 15 °F -11 °F (1966)
Degree Days  
Heating Degree Days 20 43  
Month to date heating degree days 1112 1236  
Since 1 July heating degree days 3472 3881  
Cooling Degree Days 0 0  
Month to date cooling degree days 0 0  
Year to date cooling degree days 0 0  
Moisture  
Dew Point 41 °F    
Average Humidity 91    
Maximum Humidity 100    
Minimum Humidity 82    
Precipitation  
Precipitation 0.92 in 0.05 in 1.32 in (1947)
Month to date precipitation 2.99 1.54  
Year to date precipitation 2.99 1.54  
Snow  
Snow 0.00 in 0.40 in 3.10 in (1971)
Month to date snowfall 8.6 12.3  
Since 1 July snowfall 19.7 27.0  
Snow Depth T in    
Sea Level Pressure  
Sea Level Pressure 29.76 in    
Wind  
Wind Speed 11 mph (SSE)    
Max Wind Speed 24 mph    
Max Gust Speed 31 mph    
Visibility 5 miles    
Events Rain , Thunderstorm    
T = Trace of Precipitation, MM = Missing Value Source: NWS Daily Summary

Daily Weather History Graph

Daily Weather History Graph

Search for Another Location

Airport or City:

Trip Planner

Search our weather history database for the weather conditions in past years. The results will help you decide how hot, cold, wet, or windy it might be!

Date:

Astronomy

Jan. 29, 2013 Rise Set
Actual Time 7:52 AM EST 5:44 PM EST
Civil Twilight 7:22 AM EST 6:14 PM EST
Nautical Twilight 6:48 AM EST 6:48 PM EST
Astronomical Twilight 6:14 AM EST 7:21 PM EST
Moon 8:45 PM EST (1/29) 8:44 AM EST (1/29)
Length of Visible Light 10h 51m
Length of Day
9h 51m
Waning Gibbous, 94% of the Moon is Illuminated
Jan 29
Waning Gibbous
Feb 3
Last Quarter
Feb 10
New
Feb 17
First Quarter
Feb 25
Full

Hourly Weather History & Observations

Time (EST) Temp. Windchill Dew Point Humidity Pressure Visibility Wind Dir Wind Speed Gust Speed Precip Events Conditions
12:22 AM 35.6 °F - 30.2 °F 81% 30.00 in 9.0 mi Calm Calm - N/A   Overcast
12:53 AM 35.1 °F - 32.0 °F 89% 30.01 in 10.0 mi Calm Calm - N/A   Overcast
1:33 AM 33.8 °F 30.8 °F 30.2 °F 87% 29.97 in 8.0 mi SE 3.5 mph - N/A   Scattered Clouds
1:53 AM 32.0 °F 27.5 °F 30.0 °F 92% 29.98 in 7.0 mi ESE 4.6 mph - N/A   Clear
2:31 AM 33.8 °F - 30.2 °F 87% 29.96 in 8.0 mi Calm Calm - N/A   Mostly Cloudy
2:53 AM 34.0 °F 29.8 °F 30.9 °F 89% 29.97 in 9.0 mi ESE 4.6 mph - N/A   Overcast
3:26 AM 35.6 °F 29.9 °F 30.2 °F 81% 29.94 in 10.0 mi SE 6.9 mph - N/A   Overcast
3:53 AM 35.1 °F 28.6 °F 32.0 °F 89% 29.95 in 7.0 mi SSE 8.1 mph - N/A   Overcast
4:21 AM 35.6 °F 28.6 °F 33.8 °F 93% 29.89 in 4.0 mi ESE 9.2 mph - N/A   Overcast
4:53 AM 36.0 °F 29.6 °F 33.1 °F 89% 29.91 in 3.0 mi SE 8.1 mph - 0.00 in   Overcast
5:01 AM 35.6 °F 29.2 °F 33.8 °F 93% 29.88 in 2.5 mi SE 8.1 mph - 0.00 in Rain Light Rain
5:17 AM 35.6 °F 29.9 °F 33.8 °F 93% 29.88 in 4.0 mi SE 6.9 mph - 0.03 in Rain Light Rain
5:53 AM 37.0 °F 30.4 °F 34.0 °F 89% 29.88 in 5.0 mi SSE 9.2 mph - 0.08 in Rain Light Rain
6:17 AM 37.4 °F 33.8 °F 35.6 °F 93% 29.85 in 6.0 mi Variable 4.6 mph - 0.02 in Rain Light Rain
6:31 AM 37.4 °F 30.8 °F 35.6 °F 93% 29.83 in 2.5 mi SSE 9.2 mph - 0.07 in Rain , Thunderstorm Thunderstorms and Rain
6:53 AM 37.9 °F 30.9 °F 36.0 °F 93% 29.85 in 7.0 mi SSE 10.4 mph - 0.19 in Rain , Thunderstorm Light Rain
7:28 AM 39.2 °F 32.0 °F 35.6 °F 87% 29.82 in 1.8 mi ESE 11.5 mph 31.1 mph 0.22 in Rain , Thunderstorm Heavy Thunderstorms and Rain
7:34 AM 37.4 °F 32.1 °F 35.6 °F 93% 29.83 in 2.0 mi SSE 6.9 mph - 0.28 in Rain , Thunderstorm Thunderstorms and Rain
7:44 AM 37.4 °F 28.2 °F 35.6 °F 93% 29.80 in 1.8 mi SE 16.1 mph - 0.41 in Rain Heavy Rain
7:53 AM 37.9 °F 30.5 °F 36.0 °F 93% 29.82 in 3.0 mi SE 11.5 mph - 0.48 in Rain Light Rain
8:03 AM 39.2 °F 32.5 °F 37.4 °F 93% 29.80 in 9.0 mi ESE 10.4 mph - 0.00 in Rain Light Rain
8:08 AM 39.2 °F 35.0 °F 37.4 °F 93% 29.81 in 10.0 mi East 5.8 mph - 0.00 in   Overcast
8:53 AM 39.9 °F 33.9 °F 37.0 °F 89% 29.81 in 10.0 mi SSE 9.2 mph - 0.01 in   Overcast
9:17 AM 39.2 °F 32.5 °F 37.4 °F 93% 29.79 in 2.5 mi SSE 10.4 mph - N/A   Overcast
9:30 AM 41.0 °F 35.2 °F 39.2 °F 93% 29.78 in 2.5 mi SSE 9.2 mph - N/A   Overcast
9:37 AM 41.0 °F 35.8 °F 39.2 °F 93% 29.77 in 1.2 mi South 8.1 mph - N/A   Overcast
9:53 AM 42.1 °F 36.6 °F 39.9 °F 92% 29.78 in 0.8 mi South 9.2 mph - N/A   Overcast
10:53 AM 46.0 °F 41.0 °F 44.1 °F 93% 29.77 in 0.8 mi South 10.4 mph - 0.01 in   Overcast
11:15 AM 46.4 °F 42.4 °F 44.6 °F 93% 29.76 in 1.2 mi South 8.1 mph - N/A   Overcast
11:53 AM 46.9 °F - 46.0 °F 97% 29.76 in 1.2 mi South 8.1 mph - N/A   Overcast
12:53 PM 51.1 °F - 48.9 °F 92% 29.72 in 1.2 mi South 10.4 mph - 0.01 in   Overcast
1:00 PM 51.8 °F - 48.2 °F 88% 29.71 in 2.5 mi SSW 9.2 mph - N/A   Overcast
1:40 PM 51.8 °F - 50.0 °F 94% 29.69 in 2.5 mi South 11.5 mph - 0.00 in   Overcast
1:53 PM 53.1 °F - 51.1 °F 93% 29.70 in 2.5 mi SSW 9.2 mph - 0.00 in   Overcast
2:33 PM 53.6 °F - 51.8 °F 94% 29.67 in 6.0 mi South 9.2 mph - 0.01 in   Overcast
2:53 PM 55.0 °F - 52.0 °F 89% 29.67 in 6.0 mi South 8.1 mph - 0.01 in   Overcast
3:42 PM 55.4 °F - 53.6 °F 94% 29.66 in 2.5 mi SSW 10.4 mph - 0.01 in Rain Light Rain
3:53 PM 55.9 °F - 53.1 °F 90% 29.68 in 2.5 mi SSW 11.5 mph - 0.03 in Rain Light Rain
4:53 PM 55.0 °F - 54.0 °F 96% 29.68 in 2.5 mi South 11.5 mph - 0.02 in   Overcast
5:00 PM 55.4 °F - 53.6 °F 94% 29.66 in 5.0 mi SSW 16.1 mph 23.0 mph 0.00 in Rain Light Rain
5:28 PM 55.4 °F - 50.0 °F 82% 29.64 in 4.0 mi SSW 12.7 mph - 0.03 in Rain Light Rain
5:53 PM 55.0 °F - - N/A% 29.66 in 8.0 mi South 15.0 mph 20.7 mph 0.04 in Rain Light Rain
6:35 PM 55.4 °F - - N/A% 29.63 in 9.0 mi South 11.5 mph 19.6 mph 0.01 in   Overcast
6:51 PM 55.4 °F - - N/A% 29.63 in 8.0 mi South 12.7 mph - 0.01 in   Overcast
6:53 PM 55.9 °F - - N/A% 29.64 in 7.0 mi South 12.7 mph - 0.01 in   Overcast
7:48 PM 55.4 °F - - N/A% 29.59 in 6.0 mi South 10.4 mph 18.4 mph N/A   Haze
7:53 PM 55.9 °F - - N/A% 29.61 in 6.0 mi South 13.8 mph 19.6 mph N/A   Haze
8:53 PM 55.9 °F - - N/A% 29.57 in 5.0 mi South 15.0 mph 21.9 mph 0.01 in Rain Light Rain
9:53 PM 57.0 °F - - N/A% 29.52 in 7.0 mi South 15.0 mph 23.0 mph 0.02 in   Overcast
10:53 PM 57.0 °F - 55.9 °F 96% 29.47 in 8.0 mi South 16.1 mph 26.5 mph N/A   Overcast
11:50 PM 57.2 °F - 53.6 °F 88% 29.43 in 9.0 mi South 13.8 mph 21.9 mph 0.00 in   Overcast
11:53 PM 57.9 °F - 54.0 °F 87% 29.43 in 9.0 mi South 11.5 mph 21.9 mph 0.00 in   Overcast